Location: *
(49.4547°N, 7.9131°E)
Time: 15:57:04
(UTC+00:00)

Cosmos 2263 Rocket - Pass Details

Date: 22 September 2019
Orbit: 824 x 848 km, 71.0° (Epoch: 15 October)

Event Time Altitude Azimuth Distance (km) Brightness Sun altitude
Exits shadow 22:00:16 27° 8° (N) 1,598 4.0 -37.4°
Drops below altitude 10° 22:02:52 10° 21° (NNE) 2,478 5.0 -37.6°
Sets 22:05:24 0° 27° (NNE) 3,414 5.8 -37.8°
